www.srh.weather.gov   
NOAA logo - Click to go to the NOAA homepage   NWS logo
Hourly Weather Roundup
Enter Your "City, ST" or zip code   
Current Version              Previous Version:    01  02  03  04  05  06  07  08  09  10  11  12  13  14  15  16  17  18  19  20  21  22  23  24  25  26  27  28  29  30  
   31  32  33  34  35  36  37  38  39  40  41  42  43  44  45  46  47  48  49  50  51  52  53  54  55  56  57  58  59  60  
[Printable]
507
NZUS43 KILX 252310
HWRILX

AREA WEATHER ROUNDUP
NATIONAL WEATHER SERVICE, LINCOLN IL
600 PM CDT SAT OCT 25 2014


CITY           SKY/WX    TMP DP  RH WIND       PRES   REMARKS
BLOOMINGTON    CLEAR     68  40  35 W8        30.00S
CHAMPAIGN      CLEAR     64  47  53 W8        29.98S
DECATUR        CLEAR     71  48  43 NW6       30.00R
FLORA          CLEAR     71  52  51 CALM      30.00S
GALESBURG      CLEAR     64  38  38 W7        30.02R
JACKSONVILLE   CLEAR     72  47  41 W3        30.01S
LACON          CLEAR     66  35  31 W3        29.98R
LAWRENCEVILLE  HAZE      73  52  47 W6        29.98S VSB 1/2
LITCHFIELD     CLEAR     73  48  41 NW3       30.01R
$$


CITY           SKY/WX    TMP DP  RH WIND       PRES   REMARKS
LINCOLN        CLEAR     72  46  39 W3        29.97S
MACOMB         CLEAR     65  43  44 NW7       30.04S
MATTOON        CLEAR     65  48  54 W8        29.98R
MT CARMEL AP   CLEAR     73  52  46 W5        29.98S
OLNEY-NOBLE AP CLEAR     72  54  53 CALM      29.99S
PARIS          CLEAR     69  48  46 NW3       29.97S
PEORIA         CLEAR     71  38  29 W3        30.00R
PONTIAC        CLEAR     64  41  42 W7        29.97S
RANTOUL        CLEAR     68  46  44 W7        29.97R
ROBINSON       CLEAR     72  49  45 W6        29.98S
SPRINGFIELD    CLEAR     73  44  35 W6        30.00S
TAYLORVILLE    CLEAR     72  46  40 W3        30.00S
$$

...REGIONAL REPORTS...


CITY           SKY/WX    TMP DP  RH WIND       PRES   REMARKS
CHICAGO O`HARE CLEAR     66  26  22 W13       29.91S
KANKAKEE       CLEAR     64  39  40 W7        29.94S
MOLINE         CLEAR     67  33  28 NW9       30.00R
MOUNT VERNON   CLEAR     70  52  52 CALM      30.01S
PITTSFIELD     CLEAR     72  46  40 NW3       30.03S
QUINCY         CLEAR     69  46  43 NW5       30.02S HAZE
ROCKFORD       CLEAR     65  28  24 NW15      29.96S
$$


CITY           SKY/WX    TMP DP  RH WIND       PRES   REMARKS
BURLINGTON     CLEAR     68  39  34 NW6       30.02F
CEDAR RAPIDS   CLEAR     61  37  41 NW7       30.03S
DES MOINES     CLEAR     68  35  29 N6        30.06S
KIRKSVILLE     CLEAR     68  50  52 NE6       30.04F
OTTUMWA        CLEAR     64  41  42 N7        30.04F
ST LOUIS       CLEAR     76  55  48 N3        30.01S
$$


CITY           SKY/WX    TMP DP  RH WIND       PRES   REMARKS
TERRE HAUTE    CLEAR     72  47  40 W5        29.96S HAZE
EVANSVILLE     CLEAR     74  52  46 NW3       29.99S
INDIANAPOLIS   PTCLDY    69  44  40 W10       29.93S
LAFAYETTE      CLEAR     65  44  46 W8        29.92S
MADISON        CLEAR     62  25  24 NW9       29.94R
MILWAUKEE      CLEAR     65  24  21 NW10      29.89R
$$





National Weather Service
Disclaimer
Last Modified: August 31, 2005
Privacy Policy